Temp
80 80 78 78 78 79 78 79 79 79 79 77 77 78 78 78 79 78 77 76 75 74 76 74 75 78 76 76 77 76 71 69 66 71 76 83 80 80 83 84 83 84 85
79 79 78 78 78 79 79 79 79 77 78 77 77 76 75 76 78 79 78 78 77 75 77 75 76 76 75 78 81 77 76 74 68 67 71 73 75 80 80 79 82 86 85
79 79 79 79 79 78 78 78 77 77 78 78 77 75 75 77 78 79 81 77 75 76 77 75 77 72 75 79 79 79 79 73 69 67 67 70 72 79 79 77 76 78 82
78 79 78 79 78 78 77 77 76 77 77 78 78 78 78 78 76 76 74 74 75 77 78 76 72 70 72 75 77 76 75 70 69 67 67 68 67 71 71 69 68 72 73
79 80 78 77 77 77 76 77 77 77 77 77 77 78 78 77 77 74 75 76 76 75 76 76 73 76 74 75 78 75 70 69 68 66 66 66 66 67 66 68 67 68 69
78 78 78 78 77 77 77 77 76 76 77 76 76 76 76 78 71 66 68 76 77 76 75 77 77 74 73 69 69 69 70 69 68 66 66 65 66 66 68 71 69 65 63
76 76 76 75 75 75 75 75 76 76 76 75 75 76 75 77 69 65 67 74 74 75 74 75 76 79 74 77 70 67 67 67 68 72 67 68 70 71 69 69 67 67 66
74 74 73 73 73 73 73 73 74 74 74 74 73 74 74 76 67 65 65 74 75 75 75 74 74 76 76 76 75 76 74 74 72 72 73 74 73 70 72 70 70 69 66
72 71 72 72 71 72 71 71 73 73 73 73 74 73 72 73 65 63 64 73 74 74 75 75 75 74 70 64 72 71 70 72 68 64 65 65 65 64 67 71 65 61 58
70 70 71 71 70 70 70 70 72 72 71 74 72 72 69 70 65 61 63 68 66 68 71 74 67 70 64 61 69 68 65 69 69 66 67 66 66 68 63 69 63 60 57
70 70 70 70 69 70 69 69 70 69 69 68 66 67 68 68 69 60 59 64 64 63 64 67 69 61 59 57 61 68 67 68 66 68 69 66 64 64 65 65 63 61 58
67 65 64 67 68 67 64 65 65 64 64 65 64 66 69 66 63 62 59 58 62 62 63 66 72 58 56 55 58 61 59 64 71 68 66 64 62 62 65 64 64 63 63
63 63 64 65 65 65 64 65 65 63 63 63 63 62 64 65 67 60 57 57 57 58 63 63 60 56 54 55 56 58 59 66 68 64 62 63 63 65 67 65 66 65 61
64 64 65 62 63 65 66 66 63 64 63 62 61 59 61 62 63 64 63 62 59 59 59 62 63 61 58 60 59 60 64 64 65 63 63 63 63 65 68 66 64 66 62
64 64 65 65 63 62 63 62 64 66 60 56 55 55 54 54 58 51 50 56 60 59 60 62 61 61 61 61 61 62 64 64 68 68 63 62 62 63 66 69 67 66 63
61 62 64 63 60 59 58 60 60 56 53 50 48 49 52 49 47 46 44 44 45 49 60 62 61 62 62 61 62 62 64 64 67 67 67 65 63 62 64 67 69 65 66
60 59 62 58 57 56 56 56 55 59 55 52 49 48 47 45 45 45 47 47 47 53 62 63 63 62 63 62 62 62 63 65 66 67 66 64 62 62 62 64 64 70 67
63 55 62 56 55 54 54 54 54 53 52 53 53 48 47 46 46 47 47 50 61 60 64 64 64 64 64 63 62 62 64 64 63 65 63 62 64 64 62 63 67 67 66
63 60 59 58 55 54 55 54 53 53 51 51 52 50 49 47 46 47 48 54 60 61 64 65 68 66 65 63 63 64 65 64 64 64 64 62 62 64 66 65 68 59 64
64 58 58 57 55 55 55 54 52 51 50 49 49 48 49 50 48 48 49 48 48 48 50 59 67 68 66 64 63 63 63 62 63 64 62 64 63 67 70 71 71 70 70
64 63 58 63 61 58 56 55 53 50 49 49 49 49 45 48 47 47 46 46 46 46 46 47 50 56 67 67 63 63 63 63 63 63 64 64 64 64 71 73 77 75 74
64 63 62 61 61 60 59 60 60 58 57 51 50 50 45 49 48 47 47 46 46 46 46 46 45 46 47 50 54 62 64 63 63 65 67 67 70 70 69 74 76 77 77
65 64 62 62 61 58 60 60 59 59 59 59 59 57 54 49 48 50 48 47 47 46 46 45 44 44 44 45 47 47 47 49 54 64 66 68 69 70 71 73 75 75 75
66 65 63 62 60 61 60 59 60 54 58 59 59 58 57 56 55 54 53 52 51 52 50 44 44 44 43 42 42 44 43 41 41 50 60 65 66 61 71 72 73 73 75
66 65 64 63 61 60 60 60 60 60 59 59 58 58 58 57 56 56 55 55 54 54 54 53 49 44 43 42 41 40 37 34 42 39 50 60 65 65 65 69 71 72 71
67 66 65 64 62 62 60 60 59 59 58 58 57 57 57 57 56 56 55 55 54 54 54 54 53 52 48 43 40 37 35 34 39 38 51 59 62 63 64 66 69 70 63
MSLP
1008.59 1008.54 1008.53 1008.41 1008.28 1008.27 1008.24 1008.10 1007.96 1007.87 1007.89 1007.79 1007.62 1007.42 1007.08 1006.89 1006.66 1006.49 1006.72 1006.65 1006.91 1007.64 1008.08 1008.78 1008.99 1008.74 1008.49 1008.50 1008.95 1008.70 1009.05 1009.28 1008.60 1008.02 1007.89 1007.38 1007.48 1007.91 1007.26 1007.24 1007.68 1007.82 1007.72
1008.92 1008.73 1008.64 1008.60 1008.50 1008.28 1008.09 1007.87 1007.74 1007.42 1007.16 1006.96 1006.73 1006.60 1006.35 1006.14 1006.03 1005.68 1005.57 1005.75 1005.78 1006.31 1006.46 1007.16 1007.70 1007.64 1007.72 1007.72 1007.47 1007.62 1008.00 1008.03 1008.36 1007.66 1007.42 1007.33 1007.02 1006.91 1007.11 1006.95 1006.97 1006.91 1007.02
1009.01 1008.88 1008.75 1008.58 1008.44 1008.23 1007.99 1007.72 1007.44 1007.10 1006.49 1006.09 1005.94 1005.73 1005.40 1004.99 1004.64 1004.48 1004.32 1004.60 1004.91 1005.03 1005.24 1005.90 1006.27 1006.54 1006.62 1006.60 1006.76 1006.64 1006.91 1007.10 1007.42 1007.28 1006.55 1006.84 1006.72 1006.24 1006.27 1006.64 1006.60 1006.65 1006.67
1009.09 1008.85 1008.66 1008.47 1008.23 1007.95 1007.73 1007.35 1006.98 1006.56 1006.03 1005.60 1005.17 1004.90 1004.64 1004.44 1004.34 1004.04 1003.94 1003.87 1004.26 1004.38 1004.67 1004.82 1005.02 1005.36 1005.21 1005.83 1005.90 1005.70 1006.18 1006.50 1006.59 1006.44 1006.05 1006.02 1006.18 1006.19 1006.33 1006.36 1006.32 1006.36 1006.51
1009.09 1008.84 1008.58 1008.30 1008.07 1007.68 1007.28 1006.87 1006.55 1006.19 1005.83 1005.39 1004.87 1004.31 1004.00 1003.81 1003.61 1003.82 1003.89 1003.56 1003.46 1003.64 1003.80 1004.00 1004.04 1003.44 1003.95 1004.32 1004.41 1004.74 1005.50 1005.70 1005.66 1005.60 1005.41 1005.42 1005.42 1005.44 1005.68 1005.83 1005.92 1005.96 1006.14
1009.34 1008.99 1008.53 1008.02 1007.60 1007.20 1006.75 1006.32 1005.98 1005.58 1005.30 1005.05 1004.64 1004.19 1003.71 1003.18 1002.92 1003.24 1003.55 1003.20 1002.98 1002.99 1002.94 1002.85 1002.62 1002.85 1003.24 1003.26 1003.55 1004.07 1004.48 1004.66 1004.51 1004.68 1004.58 1004.49 1004.57 1004.66 1005.01 1005.01 1005.26 1005.55 1005.87
1009.41 1009.10 1008.65 1008.20 1007.66 1007.04 1006.45 1005.86 1005.41 1004.98 1004.52 1004.18 1003.78 1003.40 1003.12 1002.81 1002.63 1002.54 1002.63 1002.56 1002.38 1002.25 1002.14 1001.74 1001.52 1001.61 1001.92 1002.15 1002.53 1003.15 1003.59 1003.80 1003.79 1003.67 1003.69 1003.67 1003.64 1003.84 1004.27 1004.37 1004.78 1004.92 1005.10
1009.54 1009.28 1008.88 1008.30 1007.67 1007.00 1006.35 1005.69 1005.10 1004.74 1004.28 1003.92 1003.57 1003.08 1002.52 1001.88 1001.82 1001.94 1001.88 1001.62 1001.30 1001.10 1000.84 1000.70 1000.70 1000.60 1000.70 1001.06 1001.42 1001.96 1002.32 1002.40 1002.95 1003.16 1002.91 1002.73 1003.08 1003.52 1003.71 1003.92 1004.07 1004.45 1005.07
1009.67 1009.35 1008.76 1008.17 1007.56 1006.89 1006.17 1005.58 1004.94 1004.45 1003.88 1003.30 1002.90 1002.50 1002.09 1001.33 1001.12 1001.32 1001.59 1001.02 1000.48 1000.14 999.86 999.89 999.77 999.64 999.95 1000.71 1001.32 1001.43 1001.49 1001.69 1001.81 1002.50 1002.71 1002.92 1003.06 1003.32 1003.41 1003.60 1003.79 1004.31 1004.84
1009.73 1009.29 1008.77 1008.22 1007.60 1006.87 1006.23 1005.62 1004.80 1004.22 1003.63 1003.06 1002.41 1002.01 1001.52 1000.89 1000.48 1000.56 1000.78 1000.54 1000.07 999.68 999.32 998.94 999.28 999.22 999.61 1000.21 1000.73 1000.84 1001.07 1000.80 1001.34 1002.12 1002.50 1002.90 1003.16 1003.25 1003.57 1003.56 1003.74 1003.75 1004.30
1009.72 1009.27 1008.71 1008.11 1007.53 1006.71 1006.24 1005.68 1004.87 1004.13 1003.58 1003.01 1002.44 1001.76 1001.08 1000.54 999.86 999.89 1000.04 1000.06 999.67 999.32 998.94 998.51 998.35 998.90 999.54 999.97 1000.06 999.94 999.67 1000.23 1001.42 1001.67 1002.04 1002.64 1003.07 1003.34 1003.34 1003.50 1003.63 1003.58 1003.96
1009.76 1009.32 1008.83 1008.18 1007.52 1006.87 1006.46 1005.74 1005.05 1004.40 1003.69 1002.99 1002.18 1001.17 1000.38 999.77 999.44 999.13 999.13 999.25 999.00 998.73 998.26 997.96 997.57 998.34 998.94 999.30 999.58 999.35 999.96 999.96 1000.63 1001.27 1001.90 1002.37 1002.79 1003.10 1003.30 1003.52 1003.74 1003.91 1003.93
1009.70 1009.19 1008.63 1008.10 1007.62 1006.92 1006.22 1005.53 1004.84 1004.38 1003.71 1003.02 1002.34 1001.25 1000.14 999.36 998.48 998.61 998.36 998.40 998.38 998.16 997.78 997.64 997.87 998.21 998.51 998.81 998.99 999.52 999.79 999.81 1000.32 1001.07 1001.49 1002.14 1002.46 1002.97 1003.21 1003.54 1003.88 1004.10 1004.39
1009.58 1009.12 1008.68 1008.29 1007.57 1006.81 1006.18 1005.53 1004.89 1004.29 1003.74 1003.26 1002.54 1001.58 1000.29 999.34 998.56 998.30 998.19 998.07 997.76 997.69 997.60 997.44 997.50 997.80 998.11 998.22 998.75 999.11 999.15 999.41 1000.08 1000.93 1001.51 1001.79 1002.50 1002.70 1002.90 1003.46 1003.81 1003.95 1004.56
1009.80 1009.36 1008.81 1008.30 1007.74 1007.08 1006.47 1005.92 1005.15 1004.42 1004.48 1004.08 1003.68 1002.82 1001.48 1000.56 999.70 999.56 999.28 998.51 997.82 997.42 997.33 997.28 997.44 997.57 997.66 997.72 998.06 998.52 998.80 999.02 999.86 1000.61 1001.18 1001.61 1002.24 1002.54 1002.62 1003.01 1003.54 1003.93 1004.30
1010.10 1009.61 1009.10 1008.60 1008.19 1007.61 1006.93 1006.08 1005.50 1005.19 1004.71 1004.20 1003.86 1003.47 1001.88 1001.15 1000.14 999.38 998.82 998.34 998.00 997.50 997.31 997.14 997.26 997.28 997.30 997.66 997.89 998.19 998.68 999.04 999.52 1000.06 1000.76 1001.30 1001.78 1002.07 1002.47 1002.81 1003.05 1003.51 1003.71
1010.36 1010.02 1009.42 1009.10 1008.76 1008.31 1007.56 1006.84 1006.05 1005.10 1004.94 1004.44 1003.88 1003.15 1002.22 1001.31 999.98 999.18 998.24 997.79 997.63 997.32 997.12 997.06 997.18 997.28 997.40 997.66 998.10 998.18 998.50 998.70 999.46 999.77 1000.38 1001.05 1001.42 1001.81 1002.39 1002.64 1002.85 1002.90 1003.52
1010.62 1010.38 1009.62 1009.50 1009.28 1008.85 1008.32 1007.72 1007.11 1006.32 1005.42 1004.56 1003.91 1003.61 1002.60 1001.42 1000.62 999.72 998.58 997.98 997.69 997.47 997.26 997.14 997.13 997.24 997.46 997.72 997.95 998.07 997.89 998.96 999.36 999.77 1000.35 1000.73 1000.86 1001.24 1001.83 1002.12 1002.34 1002.44 1002.94
1010.72 1010.60 1010.25 1010.00 1009.74 1009.36 1008.79 1008.20 1007.69 1007.06 1006.43 1005.76 1004.86 1003.81 1003.04 1002.14 1001.48 1000.61 999.99 999.38 998.66 998.32 997.72 997.39 997.24 997.28 997.45 997.60 997.76 998.00 998.24 998.57 998.93 999.38 999.76 1000.12 1000.46 1000.68 1000.96 1001.47 1001.67 1002.21 1002.48
1011.02 1010.99 1010.60 1010.28 1010.00 1009.49 1009.02 1008.58 1008.09 1007.62 1007.18 1006.66 1006.14 1005.70 1004.70 1003.43 1002.58 1002.10 1001.95 1001.41 1000.93 1000.44 999.83 998.80 997.94 997.58 997.52 997.60 997.65 997.92 998.10 998.12 998.54 998.98 998.99 999.23 999.88 999.95 1000.02 1000.29 1000.83 1001.32 1001.79
1011.24 1011.01 1010.86 1010.23 1009.92 1009.73 1009.40 1008.92 1008.70 1008.30 1007.98 1007.56 1007.24 1006.90 1006.18 1005.27 1004.67 1004.12 1003.65 1002.91 1002.55 1002.01 1001.46 1000.59 1000.00 999.26 998.16 997.94 997.95 997.98 998.06 998.07 998.35 998.23 998.46 999.00 999.37 999.56 999.44 999.63 999.86 1000.37 1000.83
1011.51 1011.28 1011.02 1010.74 1010.40 1010.06 1009.64 1009.14 1008.68 1008.34 1008.09 1008.02 1007.77 1007.45 1006.97 1006.23 1005.74 1005.27 1004.85 1004.31 1003.78 1003.20 1002.98 1002.38 1001.20 1001.05 1000.59 999.86 999.33 998.53 998.20 998.39 998.10 997.66 997.76 998.41 998.46 998.89 999.16 999.03 999.22 999.52 999.98
1011.64 1011.43 1011.20 1011.01 1010.82 1010.46 1009.94 1009.60 1009.28 1008.94 1008.45 1008.11 1007.80 1007.51 1007.24 1007.07 1006.60 1006.11 1005.79 1005.53 1005.04 1004.59 1004.10 1003.56 1002.94 1002.15 1001.69 1001.21 1000.79 1000.40 1000.00 999.72 999.23 997.60 997.58 997.74 997.87 998.15 998.39 998.56 998.66 999.06 999.48
1011.64 1011.50 1011.39 1011.18 1011.06 1010.68 1010.49 1010.06 1009.72 1009.44 1009.05 1008.60 1008.28 1008.01 1007.69 1007.42 1007.11 1006.85 1006.55 1006.12 1005.68 1005.19 1004.93 1004.66 1004.13 1003.67 1002.92 1002.60 1002.13 1001.63 1001.02 1000.51 999.88 999.06 998.01 997.52 997.66 997.83 997.91 998.06 998.38 998.80 999.02
1011.56 1011.51 1011.36 1011.24 1011.08 1010.85 1010.54 1010.27 1010.00 1009.72 1009.40 1009.14 1008.88 1008.64 1008.30 1007.96 1007.65 1007.42 1007.10 1006.73 1006.32 1005.86 1005.44 1005.02 1004.74 1004.60 1004.17 1003.64 1002.74 1001.70 1001.61 1000.92 999.91 999.29 998.60 997.89 997.32 997.58 997.72 997.90 998.07 998.38 998.78
1011.22 1011.25 1011.19 1011.14 1010.99 1010.84 1010.66 1010.38 1010.17 1010.00 1009.83 1009.60 1009.37 1009.07 1008.78 1008.46 1008.22 1007.99 1007.75 1007.45 1006.99 1006.54 1006.12 1005.73 1005.33 1004.94 1004.52 1004.24 1003.82 1003.20 1002.37 1001.26 1000.25 999.36 998.74 997.85 997.14 997.41 997.54 997.62 997.74 998.11 998.76
Wind_Speed
10 9 6 5 4 4 6 9 10 12 13 15 15 15 15 15 14 11 14 11 13 11 11 11 15 14 9 8 10 10 9 8 12 9 10 14 12 15 13 11 12 13 11
5 4 3 0 2 5 8 11 12 15 14 16 15 15 15 14 14 13 14 12 12 14 14 14 15 9 12 12 11 13 12 11 10 16 10 9 12 14 13 13 11 11 12
6 6 6 6 8 8 10 11 11 13 14 14 13 13 14 15 14 14 14 14 13 13 13 14 14 9 11 12 13 13 12 9 9 11 11 7 8 12 12 11 10 11 10
6 6 6 7 8 8 9 9 10 11 12 12 12 13 14 14 13 15 13 14 13 15 14 13 11 11 14 17 14 13 11 10 10 10 9 7 6 6 6 6 6 7 8
8 9 9 9 9 9 10 10 10 10 10 11 13 14 14 12 10 8 9 11 11 13 12 15 13 15 22 19 10 11 10 11 9 8 9 6 5 5 6 4 8 5 7
11 12 12 12 12 12 12 11 10 11 11 11 12 13 15 11 11 13 15 15 15 15 15 16 16 18 17 16 19 20 13 13 12 9 8 9 9 7 8 10 8 4 5
12 13 13 13 14 14 14 13 13 12 12 13 14 15 16 15 13 14 16 13 13 14 17 16 14 12 14 16 17 19 19 21 19 12 11 10 12 9 9 8 8 7 5
12 13 13 14 14 14 14 14 13 10 13 13 14 15 15 14 12 15 16 15 13 15 17 15 16 16 15 14 12 15 14 15 16 13 15 12 8 6 10 9 10 10 3
12 13 14 14 14 14 14 14 14 12 13 14 14 16 15 16 12 13 12 14 14 16 15 16 17 17 15 12 14 13 10 12 8 7 7 3 3 4 6 5 6 5 3
13 13 13 13 14 15 15 15 14 13 14 13 16 16 17 17 15 11 11 9 12 10 14 15 15 18 10 14 14 12 12 12 8 8 7 6 7 6 6 7 4 7 4
14 14 14 14 14 13 14 14 14 14 14 14 13 13 15 15 16 12 12 8 8 8 8 10 10 13 16 15 18 13 13 9 10 8 7 5 4 4 3 2 2 4 5
14 13 12 14 12 10 11 11 10 10 11 13 14 14 13 11 11 12 12 12 12 9 9 7 10 10 13 15 15 11 9 14 10 8 7 6 5 4 4 4 5 3 3
13 12 12 12 11 10 11 12 9 9 9 10 11 12 12 10 9 10 11 11 10 9 6 6 9 8 9 10 14 13 13 7 8 6 6 5 5 5 7 6 5 11 8
14 14 12 11 13 11 10 9 8 9 9 10 12 12 11 10 7 4 4 6 4 4 7 7 8 6 7 7 8 11 8 8 7 6 6 6 5 7 8 7 4 9 9
13 13 13 11 12 10 10 9 10 11 11 9 8 10 9 11 10 13 9 6 5 5 5 3 3 3 5 6 7 8 7 8 10 8 7 6 6 6 6 9 7 9 8
12 10 11 11 9 8 8 9 13 10 15 13 10 10 11 13 18 18 13 12 12 10 3 2 3 4 4 5 7 8 7 8 8 9 8 8 7 7 7 8 9 5 8
11 11 10 10 9 9 9 9 10 11 11 11 13 20 23 20 18 15 12 7 3 4 2 3 3 3 3 4 4 4 6 5 7 8 8 8 7 6 8 8 6 10 8
12 13 10 8 8 8 9 9 8 9 11 13 14 17 23 24 22 23 19 7 3 2 1 2 3 4 4 5 5 4 5 5 5 7 7 7 6 9 8 9 11 8 7
10 9 10 10 9 8 8 8 8 9 9 10 11 15 21 20 16 21 22 12 8 5 5 3 2 2 4 5 5 6 7 7 7 7 8 8 8 7 11 10 11 10 11
10 14 10 8 7 9 9 9 9 9 9 9 10 13 13 13 14 14 12 12 11 10 11 11 8 5 2 3 4 5 6 6 8 7 7 8 7 8 10 12 12 12 12
8 9 12 9 9 9 9 9 8 8 9 9 9 11 19 10 11 11 11 11 11 11 11 10 10 13 10 1 3 4 5 5 6 6 7 7 9 8 9 10 11 12 12
7 8 8 9 9 10 10 10 10 9 10 9 9 10 17 10 10 10 10 10 10 10 9 10 9 10 10 9 11 6 3 4 4 6 7 9 12 11 10 11 12 11 11
7 9 9 9 9 9 9 10 10 11 10 10 11 10 11 10 10 11 10 10 10 10 10 10 10 11 11 11 10 8 7 8 8 5 7 9 9 10 10 12 12 12 12
6 8 8 8 8 9 9 9 9 9 10 11 11 11 11 11 11 12 11 11 11 11 11 9 10 15 12 11 10 9 8 8 6 8 10 6 8 7 10 11 12 16 14
4 6 7 7 7 8 8 8 9 9 9 10 10 10 10 10 11 11 11 11 11 11 13 12 10 13 14 17 17 20 18 18 12 12 6 8 8 10 10 10 13 12 14
4 4 5 5 6 6 6 7 7 8 8 8 8 8 9 9 9 9 9 11 10 10 12 10 13 18 18 13 16 18 18 22 18 19 11 4 5 5 7 10 15 11 10
Wind_Direction
27 25 15 354 329 289 263 263 262 263 260 257 260 265 260 255 243 222 223 213 196 203 202 230 239 240 240 239 247 243 235 235 256 259 256 265 257 258 256 237 245 241 237
39 37 54 90 301 312 296 288 287 284 281 271 266 259 254 250 257 254 235 223 217 216 218 212 229 231 239 250 255 247 243 235 247 265 254 253 247 251 258 253 246 243 244
3 352 335 313 303 309 310 304 302 292 289 284 277 270 261 251 247 243 236 229 220 222 216 214 227 227 243 254 249 253 253 248 243 252 258 239 244 244 253 247 240 245 243
353 340 323 312 300 295 296 295 291 290 289 286 283 281 279 275 266 247 231 224 216 226 229 226 217 223 236 241 243 248 257 250 240 240 253 247 215 225 229 233 231 226 238
344 334 325 311 300 294 289 292 298 297 293 294 299 298 293 285 278 268 254 259 254 250 237 244 238 229 223 229 238 243 239 245 237 235 246 239 218 200 216 205 231 218 221
338 327 320 318 316 308 306 305 301 298 295 292 288 287 289 287 273 247 246 264 268 265 259 252 251 241 230 228 220 232 231 240 236 224 237 234 226 208 223 219 218 192 213
331 323 324 327 320 313 305 299 295 293 293 291 294 297 291 283 265 256 254 264 262 255 253 258 255 245 237 242 222 230 236 229 239 244 237 233 241 227 218 233 214 210 212
326 326 327 323 316 315 313 308 303 302 301 299 295 292 290 287 258 251 260 277 270 262 258 254 253 254 248 238 241 240 235 229 229 232 242 251 237 198 214 217 222 223 221
329 326 323 323 319 316 311 313 311 305 303 298 294 293 290 286 269 251 262 282 271 263 259 253 247 248 244 203 232 238 234 236 196 224 243 263 290 266 277 242 229 193 164
336 329 326 328 323 319 318 316 310 304 299 301 302 300 293 290 286 264 257 276 269 265 262 255 233 240 230 190 214 209 211 214 202 192 194 190 199 190 212 244 212 210 133
333 329 329 333 326 323 323 319 313 314 314 312 305 298 291 288 289 269 248 263 262 261 251 250 238 222 221 190 205 206 205 170 194 178 173 156 145 152 161 170 166 171 160
337 338 336 333 334 334 324 312 312 311 309 310 308 301 300 294 280 279 272 249 260 252 247 244 252 193 203 198 194 209 188 168 177 167 165 163 154 155 176 125 121 92 84
337 336 334 340 335 323 315 311 317 319 309 312 314 301 297 298 287 281 283 281 262 246 247 250 263 216 204 204 199 191 169 173 168 167 163 160 145 162 149 142 153 115 89
338 339 343 338 330 332 330 327 317 319 320 320 327 332 319 302 297 293 344 328 295 252 250 255 262 228 198 193 174 173 174 154 160 160 163 143 149 161 163 154 140 130 125
341 335 342 342 338 331 334 331 324 330 346 340 353 331 340 324 322 317 295 289 281 240 244 227 169 188 181 167 168 167 167 156 168 159 151 147 155 168 167 163 163 145 148
334 341 337 341 338 337 334 332 339 349 340 341 342 345 333 315 303 306 293 270 256 245 215 183 186 200 181 171 170 164 166 171 173 164 162 163 164 168 170 178 174 178 163
340 343 336 351 341 342 339 341 339 337 332 326 343 347 346 337 338 341 354 325 240 152 213 167 173 175 173 148 177 166 164 167 169 168 169 170 160 165 167 175 188 179 177
356 354 346 351 352 347 346 345 344 344 346 346 353 348 351 353 355 357 346 321 39 360 23 185 182 187 169 174 161 169 169 171 175 176 165 175 173 165 176 181 186 190 178
11 6 355 2 1 349 350 354 353 355 358 353 349 355 359 353 353 14 11 14 3 350 333 323 294 216 196 179 190 195 187 182 185 183 181 178 184 188 181 178 190 184 181
11 17 11 11 359 2 0 3 4 5 2 2 2 3 351 2 15 13 12 12 14 7 356 348 340 341 322 177 182 194 194 185 185 185 194 176 182 206 189 184 184 183 191
12 13 10 14 16 15 7 13 12 8 7 5 3 3 352 14 13 14 9 11 14 9 1 357 357 353 349 268 185 204 201 190 187 190 193 183 181 197 206 193 182 180 185
11 12 14 14 14 15 10 13 13 16 21 15 8 7 3 17 16 12 13 12 12 16 10 3 6 8 0 1 358 343 232 212 211 199 190 193 195 190 200 200 190 187 186
8 10 12 15 10 7 16 18 20 16 16 17 18 20 24 24 15 18 15 13 12 14 10 9 16 18 11 7 0 2 1 349 337 258 204 203 202 193 201 200 199 196 193
2 4 6 9 15 6 15 15 14 20 15 19 20 20 18 21 22 24 21 17 18 22 26 19 18 20 14 14 360 357 8 350 319 305 300 213 208 212 215 206 202 208 206
348 353 1 5 2 4 6 13 14 15 17 17 19 17 18 20 19 19 16 15 18 19 22 21 28 18 15 12 11 10 359 353 5 335 282 282 220 217 208 211 212 211 210
322 332 352 355 354 357 356 0 7 11 10 13 13 14 15 14 16 15 14 14 12 13 14 16 18 19 18 10 4 360 357 357 5 352 344 305 254 234 214 214 213 208 205